Location: Ambatotampy
(18.8181°S, 47.6186°E)
Time: 00:10:01
(UTC+00:00)

Meteor PRIRODA - Pass Details

Date: 21 January 2021
Orbit: 489 x 509 km, 97.6° (Epoch: 24 February)

Event Time Altitude Azimuth Distance (km) Brightness Sun altitude
Rises 01:25:38 0° 20° (NNE) 2,555 7.1 -14.4°
Reaches altitude 10° 01:27:42 10° 24° (NNE) 1,683 6.3 -14.0°
Maximum altitude 01:31:15 56° 102° (ESE) 594 4.3 -13.3°
Drops below altitude 10° 01:34:52 10° 181° (S) 1,714 6.7 -12.5°
Sets 01:37:00 0° 185° (S) 2,608 7.6 -12.0°
